Content
SEND FEEDBACK

Daily
Averages
Monthly
Summary
United States of America

MARION CENTER, PENNSYLVANIA


Home > North America > United States > Pennsylvania
Elevation: 1403 feet     Latitude: 40 46N     Longitude: 079 03W

WEATHER
 
SELECT A DAY
Number of Records: 415,452;   Date Range: 2/3/97 - 10/22/14
 
SHARE

PRINT THIS DATA

[ ← Previous Day ]
WEATHER ALMANAC - JANUARY 31, 2013
[ Next Day → ]
[ °C ]   °F
Weather ElementAverageHighLow
Temperature27.2 °F46.4 °F (12:35 am) (11:35 am)
Dewpoint23.2 °F44.6 °F (12:35 am) (7:00 pm)
Humidity85.1 %100 % (1:15 am)63 % (4:15 pm)
Barometer29.58 in29.78 in (10:15 pm)29.19 in (1:15 am)
Wind Speed19.7 mph33.4 mph (9:55 am)
Wind Gust41.4 mph (3:35 am)
Weather ElementAverage
Visibility7.9 mi
Wind DirectionWNW (277.8 °)

Weather ElementTotal
Precipitation0.25 in
Heating Degree Days41.8 (Base 65)
Averaged from 68 records on January 31, 2013
WEATHER CONDITIONS BREAKOUT
WIND DIRECTION BREAKOUT
WEATHER BY HOUR - JANUARY 31, 2013
[ °C ]   °F
Local TimeTemperatureDewpointHumidityBarometerVisibilityWind DirectionWind SpeedGust SpeedPrecipitationEventsConditions
12:35 AM46.4 °F44.6 °F93 %29.26 in7.0 miWest (260°)25.3 mph36.8 mph0.06 in
12:55 AM46.4 °F44.6 °F93 %29.25 in10.0 miWSW (250°)18.4 mph28.8 mph0.06 in
1:15 AM44.6 °F44.6 °F100 %29.19 in10.0 miWSW (240°)12.7 mph20.7 mph0.01 in
1:35 AM44.6 °F44.6 °F100 %29.23 in5.0 miWest (280°)27.6 mph40.3 mph0.02 in
1:55 AM37.4 °F37.4 °F100 %29.31 in10.0 miWNW (290°)21.9 mph34.5 mph0.05 in
2:15 AM37.4 °F37.4 °F100 %29.32 in10.0 miWest (280°)13.8 mph25.3 mph
2:35 AM37.4 °F35.6 °F93 %29.30 in10.0 miWest (280°)21.9 mph34.5 mph
2:55 AM35.6 °F35.6 °F100 %29.33 in10.0 miWest (260°)18.4 mph26.5 mph
3:15 AM35.6 °F35.6 °F100 %29.34 in7.0 miWNW (300°)19.6 mph26.5 mph0.01 in
3:35 AM33.8 °F33.8 °F100 %29.36 in2.0 miWNW (290°)25.3 mph41.4 mph0.02 in
3:55 AM33.8 °F33.8 °F100 %29.37 in5.0 miWest (280°)19.6 mph33.4 mph0.02 in
4:15 AM33.8 °F32.0 °F93 %29.36 in10.0 miWest (280°)19.6 mph31.1 mph
4:35 AM33.8 °F32.0 °F93 %29.36 in10.0 miWest (260°)21.9 mph25.3 mph
4:55 AM30.2 °F30.2 °F100 %29.39 in1.2 miWNW (290°)20.7 mph35.7 mph
5:15 AM30.2 °F30.2 °F100 %29.40 in10.0 miWest (280°)16.1 mph28.8 mph
5:35 AM30.2 °F28.4 °F93 %29.41 in7.0 miWNW (290°)12.7 mph24.2 mph
5:55 AM30.2 °F28.4 °F93 %29.43 in10.0 miWNW (290°)15.0 mph23.0 mph
6:15 AM30.2 °F26.6 °F86 %29.44 in10.0 miWest (280°)18.4 mph28.8 mph
6:35 AM30.2 °F26.6 °F86 %29.46 in10.0 miWest (270°)21.9 mph27.6 mph
6:55 AM28.4 °F28.4 °F100 %29.47 in3.0 miWest (280°)19.6 mph32.2 mph
7:15 AM28.4 °F28.4 °F100 %29.49 in10.0 miWest (280°)18.4 mph27.6 mph
7:55 AM28.4 °F26.6 °F93 %29.51 in10.0 miWest (270°)23.0 mph29.9 mph
8:15 AM28.4 °F26.6 °F93 %29.52 in4.0 miWest (280°)25.3 mph33.4 mph
8:35 AM28.4 °F26.6 °F93 %29.54 in2.5 miWest (280°)17.3 mph27.6 mph
8:55 AM26.6 °F26.6 °F100 %29.55 in0.5 miWNW (290°)26.5 mph29.9 mph
9:15 AM26.6 °F24.8 °F93 %29.55 in5.0 miWNW (290°)18.4 mph29.9 mph
9:35 AM26.6 °F21.2 °F80 %29.56 in7.0 miWNW (290°)21.9 mph29.9 mph
9:55 AM26.6 °F21.2 °F80 %29.56 in7.0 miWest (280°)33.4 mph40.3 mph
10:15 AM26.6 °F21.2 °F80 %29.57 in10.0 miWest (280°)20.7 mph33.4 mph
10:35 AM24.8 °F21.2 °F86 %29.59 in2.0 miWNW (290°)23.0 mph32.2 mph
10:55 AM26.6 °F21.2 °F80 %29.59 in10.0 miWest (280°)21.9 mph29.9 mph
11:15 AM24.8 °F21.2 °F86 %29.62 in2.5 miWest (280°)26.5 mph36.8 mph
11:35 AM0.0 °F0.0 °F29.63 inWest (280°)29.9 mph41.4 mph
11:55 AM24.8 °F17.6 °F74 %29.63 in10.0 miWest (280°)25.3 mph33.4 mph
12:15 PM24.8 °F19.4 °F80 %29.63 in7.0 miWNW (290°)19.6 mph32.2 mph
12:35 PM26.6 °F19.4 °F74 %29.63 in10.0 miWest (270°)21.9 mph33.4 mph
12:55 PM24.8 °F21.2 °F86 %29.63 in5.0 miWest (270°)23.0 mph28.8 mph
1:15 PM24.8 °F21.2 °F86 %29.63 in5.0 miWest (280°)15.0 mph34.5 mph
1:35 PM24.8 °F19.4 °F80 %29.63 in7.0 miWest (280°)18.4 mph34.5 mph
1:55 PM26.6 °F17.6 °F69 %29.62 in10.0 miWest (270°)26.5 mph40.3 mph
2:15 PM24.8 °F21.2 °F86 %29.64 in0.8 miWNW (290°)24.2 mph38.0 mph
2:35 PM24.8 °F15.8 °F69 %29.66 in10.0 miWNW (290°)18.4 mph38.0 mph
2:55 PM24.8 °F14.0 °F64 %29.67 in10.0 miWNW (290°)21.9 mph32.2 mph
3:15 PM24.8 °F15.8 °F69 %29.68 in10.0 miWNW (290°)24.2 mph31.1 mph
3:35 PM24.8 °F15.8 °F69 %29.69 in10.0 miWNW (290°)18.4 mph32.2 mph
3:55 PM21.2 °F15.8 °F80 %29.71 in3.0 miWNW (290°)20.7 mph36.8 mph
4:15 PM23.0 °F12.2 °F63 %29.72 in10.0 miWest (280°)23.0 mph33.4 mph
4:35 PM23.0 °F12.2 °F63 %29.73 in10.0 miWest (270°)21.9 mph39.1 mph
4:55 PM23.0 °F14.0 °F68 %29.74 in10.0 miWNW (290°)20.7 mph28.8 mph
5:15 PM23.0 °F12.2 °F63 %29.74 in10.0 miWNW (290°)17.3 mph21.9 mph
5:35 PM23.0 °F12.2 °F63 %29.74 in10.0 miWest (270°)21.9 mph26.5 mph
5:55 PM23.0 °F14.0 °F68 %29.75 in10.0 miWest (280°)17.3 mph21.9 mph
6:15 PM23.0 °F14.0 °F68 %29.76 in10.0 miWest (270°)19.6 mph29.9 mph
6:35 PM21.2 °F15.8 °F80 %29.76 in10.0 miWest (260°)16.1 mph23.0 mph
6:55 PM21.2 °F15.8 °F80 %29.76 in10.0 miWest (270°)15.0 mph
7:15 PM21.2 °F15.8 °F80 %29.76 in10.0 miWest (260°)16.1 mph20.7 mph
7:35 PM21.2 °F17.6 °F86 %29.77 in10.0 miWest (270°)16.1 mph21.9 mph
8:15 PM21.2 °F17.6 °F86 %29.76 in10.0 miWest (260°)13.8 mph20.7 mph
8:35 PM23.0 °F17.6 °F80 %29.76 in10.0 miWest (270°)17.3 mph20.7 mph
8:55 PM23.0 °F17.6 °F80 %29.76 in7.0 miWest (270°)16.1 mph24.2 mph
9:15 PM23.0 °F19.4 °F86 %29.77 in10.0 miWest (270°)11.5 mph
9:35 PM24.8 °F17.6 °F74 %29.77 in10.0 miWest (270°)18.4 mph26.5 mph
9:55 PM23.0 °F17.6 °F80 %29.77 in10.0 miWest (270°)15.0 mph26.5 mph
10:15 PM23.0 °F19.4 °F86 %29.78 in10.0 miWest (270°)15.0 mph27.6 mph
10:35 PM23.0 °F19.4 °F86 %29.77 in7.0 miWest (270°)19.6 mph26.5 mph
11:15 PM23.0 °F19.4 °F86 %29.78 in10.0 miWest (270°)10.4 mph16.1 mph
11:35 PM21.2 °F21.2 °F100 %29.78 in0.8 miWNW (300°)8.1 mph17.3 mph
11:55 PM21.2 °F21.2 °F100 %29.78 inWest (280°)17.3 mph25.3 mph
Hourly data recorded from KIDI, located miles away from Marion Center, Pennsylvania







STORIES FROM OUR PARTNERS